Powrót do katalogu

LEMUR 2 DELOITTE-1

AktywnyPogodaSSO
NORAD 63259·PAYLOAD·🇺🇸 United States

Wystrzelony Mar 15, 2025 z Vandenberg Space Force Base

Loading…

Następne Przeloty (najbliższe 24 godziny)

TLE

ŚwieżeSource: Space-Track

Epoka: Sep 13, 2026, 16:46 UTC

1 63259U 25052BB  26256.69865725  .00002633  00000-0  22724-3 0  9992
2 63259  97.6770 148.0712 0001924 131.9046 228.2341 14.98110654 81949

Śledź LEMUR 2 DELOITTE-1 w czasie rzeczywistym z AllMySat

Download on the App Store